When you browse on this site, cookies collect data to enhance your experience and personalize the content and advertising you see.
Visit our Privacy Policy to learn more. By continuing to use the site, you agree to this use of cookies and data.
  • In United Kingdom
  • List of Countries
  • For 7 days
  • Water Temperature
  • Weather Map
  • Weather Widgets
  • user-avatar
    Login

    Hourly Weather Szazhalombatta

    Today, 19 September, Thursday

    Time Temperature Precipitation Wind Pressure Humidity
    00:00 +12°C° 0 mm 2 mps 758 mmHg 48%
    01:00 +10°C° 0 mm 2 mps 758 mmHg 49%
    02:00 +10°C° 0 mm 2 mps 758 mmHg 51%
    03:00 +10°C° 0 mm 2 mps 758 mmHg 52%
    04:00 +9°C° 0 mm 2 mps 758 mmHg 54%
    05:00 +10°C° 0 mm 2 mps 758 mmHg 54%
    06:00 +10°C° 0 mm 2 mps 758 mmHg 55%
    07:00 +12°C° 0 mm 2 mps 758 mmHg 55%
    08:00 +13°C° 0 mm 3 mps 758 mmHg 50%
    09:00 +14°C° 0 mm 4 mps 758 mmHg 45%
    10:00 +16°C° 0 mm 5 mps 759 mmHg 39%
    11:00 +17°C° 0 mm 5 mps 758 mmHg 37%
    12:00 +17°C° 0 mm 5 mps 758 mmHg 34%
    13:00 +19°C° 0 mm 5 mps 758 mmHg 32%
    14:00 +19°C° 0 mm 5 mps 758 mmHg 32%
    15:00 +17°C° 0 mm 5 mps 758 mmHg 33%
    16:00 +17°C° 0 mm 5 mps 758 mmHg 33%
    17:00 +16°C° 0 mm 5 mps 758 mmHg 37%
    18:00 +14°C° 0 mm 4 mps 758 mmHg 42%
    19:00 +13°C° 0 mm 3 mps 758 mmHg 46%
    20:00 +12°C° 0 mm 3 mps 759 mmHg 48%
    21:00 +11°C° 0 mm 3 mps 759 mmHg 50%
    22:00 +11°C° 0 mm 3 mps 759 mmHg 53%
    23:00 +10°C° 0 mm 3 mps 759 mmHg 55%

    Tomorrow, 20 September, Friday

    Time Temperature Precipitation Wind Pressure Humidity
    00:00 +10°C° 0 mm 3 mps 759 mmHg 58%
    01:00 +9°C° 0 mm 3 mps 759 mmHg 60%
    02:00 +9°C° 0 mm 3 mps 759 mmHg 64%
    03:00 +8°C° 0 mm 2 mps 759 mmHg 67%
    04:00 +8°C° 0 mm 2 mps 759 mmHg 70%
    05:00 +8°C° 0 mm 2 mps 759 mmHg 68%
    06:00 +9°C° 0 mm 2 mps 760 mmHg 67%
    07:00 +10°C° 0 mm 2 mps 760 mmHg 65%
    08:00 +13°C° 0 mm 2 mps 760 mmHg 57%
    09:00 +15°C° 0 mm 1 mps 760 mmHg 49%
    10:00 +18°C° 0 mm 1 mps 761 mmHg 41%
    11:00 +18°C° 0 mm 1 mps 760 mmHg 37%
    12:00 +19°C° 0 mm 1 mps 760 mmHg 32%
    13:00 +19°C° 0 mm 2 mps 759 mmHg 28%
    14:00 +19°C° 0 mm 2 mps 759 mmHg 27%
    15:00 +19°C° 0 mm 2 mps 759 mmHg 26%
    16:00 +19°C° 0 mm 2 mps 759 mmHg 26%
    17:00 +19°C° 0 mm 1 mps 759 mmHg 29%
    18:00 +16°C° 0 mm 1 mps 759 mmHg 33%
    19:00 +14°C° 0 mm 1 mps 759 mmHg 37%
    20:00 +14°C° 0 mm 1 mps 759 mmHg 39%
    21:00 +13°C° 0 mm 1 mps 760 mmHg 41%
    22:00 +13°C° 0 mm 1 mps 760 mmHg 43%
    23:00 +12°C° 0 mm 1 mps 760 mmHg 44%

    Day after tomorrow, 21 September, Saturday

    Time Temperature Precipitation Wind Pressure Humidity
    00:00 +12°C° 0 mm 1 mps 760 mmHg 46%
    01:00 +11°C° 0 mm 1 mps 760 mmHg 48%
    02:00 +11°C° 0 mm 1 mps 760 mmHg 49%
    03:00 +11°C° 0 mm 1 mps 760 mmHg 50%
    04:00 +10°C° 0 mm 1 mps 760 mmHg 51%
    05:00 +11°C° 0 mm 1 mps 760 mmHg 50%
    06:00 +11°C° 0 mm 1 mps 760 mmHg 48%
    07:00 +12°C° 0 mm 1 mps 760 mmHg 47%
    08:00 +14°C° 0 mm 1 mps 760 mmHg 43%
    09:00 +16°C° 0 mm 2 mps 760 mmHg 38%
    10:00 +18°C° 0 mm 2 mps 760 mmHg 33%
    11:00 +19°C° 0 mm 2 mps 760 mmHg 31%
    12:00 +20°C° 0 mm 2 mps 759 mmHg 29%
    13:00 +21°C° 0 mm 3 mps 759 mmHg 26%
    14:00 +21°C° 0 mm 3 mps 758 mmHg 26%
    15:00 +21°C° 0 mm 3 mps 758 mmHg 25%
    16:00 +21°C° 0 mm 2 mps 757 mmHg 25%
    17:00 +19°C° 0 mm 2 mps 757 mmHg 29%
    18:00 +17°C° 0 mm 2 mps 757 mmHg 32%
    19:00 +16°C° 0 mm 2 mps 757 mmHg 36%
    20:00 +15°C° 0 mm 2 mps 757 mmHg 37%
    21:00 +14°C° 0 mm 2 mps 757 mmHg 38%
    22:00 +14°C° 0 mm 2 mps 757 mmHg 40%
    23:00 +13°C° 0 mm 2 mps 756 mmHg 41%

    22 September, Sunday

    Time Temperature Precipitation Wind Pressure Humidity
    00:00 +13°C° 0 mm 2 mps 756 mmHg 42%
    01:00 +12°C° 0 mm 2 mps 756 mmHg 43%
    02:00 +12°C° 0 mm 2 mps 756 mmHg 44%
    03:00 +10°C° 0 mm 2 mps 755 mmHg 45%
    04:00 +10°C° 0 mm 2 mps 755 mmHg 46%
    05:00 +11°C° 0 mm 3 mps 755 mmHg 45%
    06:00 +11°C° 0 mm 3 mps 755 mmHg 44%
    07:00 +12°C° 0 mm 3 mps 754 mmHg 43%
    08:00 +14°C° 0 mm 4 mps 754 mmHg 39%
    09:00 +17°C° 0 mm 4 mps 754 mmHg 34%
    10:00 +19°C° 0 mm 5 mps 754 mmHg 30%
    11:00 +21°C° 0 mm 5 mps 753 mmHg 27%
    12:00 +22°C° 0 mm 5 mps 753 mmHg 25%
    13:00 +25°C° 0 mm 5 mps 752 mmHg 23%
    14:00 +23°C° 0 mm 5 mps 752 mmHg 25%
    15:00 +23°C° 0 mm 4 mps 751 mmHg 26%
    16:00 +24°C° 0 mm 3 mps 751 mmHg 28%
    17:00 +22°C° 0 mm 3 mps 750 mmHg 29%
    18:00 +21°C° 0 mm 3 mps 750 mmHg 30%
    19:00 +21°C° 0 mm 2 mps 750 mmHg 31%
    20:00 +20°C° 0 mm 3 mps 750 mmHg 40%
    21:00 +20°C° 0 mm 3 mps 750 mmHg 49%
    22:00 +19°C° 0 mm 4 mps 750 mmHg 57%
    23:00 +19°C° 0.1 mm 4 mps 750 mmHg 62%

    23 September, Monday

    Time Temperature Precipitation Wind Pressure Humidity
    00:00 +19°C° 0.1 mm 4 mps 749 mmHg 67%
    01:00 +18°C° 0.1 mm 4 mps 749 mmHg 72%
    02:00 +18°C° 0 mm 4 mps 749 mmHg 70%
    03:00 +18°C° 0 mm 3 mps 749 mmHg 68%
    04:00 +18°C° 0 mm 3 mps 748 mmHg 66%
    05:00 +18°C° 0.1 mm 3 mps 748 mmHg 65%
    06:00 +17°C° 0.1 mm 2 mps 748 mmHg 64%
    07:00 +17°C° 0.1 mm 2 mps 748 mmHg 63%
    08:00 +18°C° 0.1 mm 2 mps 748 mmHg 62%
    09:00 +19°C° 0.1 mm 2 mps 748 mmHg 61%
    10:00 +20°C° 0.1 mm 2 mps 748 mmHg 61%
    11:00 +21°C° 0.1 mm 2 mps 748 mmHg 60%
    12:00 +22°C° 0.1 mm 1 mps 748 mmHg 60%
    13:00 +23°C° 0.1 mm 1 mps 747 mmHg 60%
    14:00 +23°C° 0 mm 2 mps 747 mmHg 59%
    15:00 +23°C° 0 mm 2 mps 747 mmHg 57%
    16:00 +22°C° 0 mm 3 mps 747 mmHg 56%
    17:00 +21°C° 0 mm 4 mps 747 mmHg 60%
    18:00 +20°C° 0 mm 4 mps 747 mmHg 64%
    19:00 +19°C° 0 mm 5 mps 748 mmHg 68%
    20:00 +17°C° 0 mm 5 mps 748 mmHg 70%
    21:00 +17°C° 0 mm 6 mps 748 mmHg 72%
    22:00 +16°C° 0 mm 6 mps 748 mmHg 74%
    23:00 +16°C° 0.2 mm 6 mps 748 mmHg 77%

    24 September, Tuesday

    Time Temperature Precipitation Wind Pressure Humidity
    00:00 +15°C° 0.2 mm 6 mps 748 mmHg 80%
    01:00 +15°C° 0.2 mm 6 mps 749 mmHg 82%
    02:00 +15°C° 0 mm 5 mps 748 mmHg 82%
    03:00 +15°C° 0 mm 5 mps 748 mmHg 82%
    04:00 +14°C° 0 mm 5 mps 748 mmHg 82%
    05:00 +15°C° 0 mm 5 mps 748 mmHg 80%
    06:00 +15°C° 0 mm 6 mps 748 mmHg 78%
    07:00 +15°C° 0 mm 7 mps 749 mmHg 76%
    08:00 +16°C° 0 mm 7 mps 749 mmHg 70%
    09:00 +17°C° 0 mm 8 mps 749 mmHg 63%
    10:00 +18°C° 0 mm 8 mps 749 mmHg 57%
    11:00 +20°C° 0 mm 8 mps 749 mmHg 53%
    12:00 +21°C° 0 mm 8 mps 749 mmHg 50%
    13:00 +21°C° 0 mm 8 mps 749 mmHg 46%
    14:00 +21°C° 0 mm 7 mps 749 mmHg 47%
    15:00 +21°C° 0 mm 7 mps 749 mmHg 48%
    16:00 +21°C° 0 mm 6 mps 749 mmHg 49%
    17:00 +19°C° 0 mm 5 mps 749 mmHg 52%
    18:00 +17°C° 0 mm 5 mps 749 mmHg 55%
    19:00 +17°C° 0 mm 4 mps 749 mmHg 58%
    20:00 +15°C° 0 mm 4 mps 750 mmHg 60%
    21:00 +16°C° 0 mm 3 mps 750 mmHg 63%
    22:00 +14°C° 0 mm 3 mps 750 mmHg 65%
    23:00 +14°C° 0 mm 3 mps 750 mmHg 67%
    Show more